| time (UTC) | temp F | wind direction | speed MPH | gust MPH | rain 1hr in | rain 24hr in | rain mn in | humidity % | barometer mb |
| 20260505021556 | 55 | 280 | 0.0 | 0.0 | 0.00 | 0.00 | 0.00 | 86 | 1002.1 |
| 20260505020053 | 56 | 280 | 0.0 | 0.0 | 0.00 | 0.00 | 0.00 | 83 | 1002.0 |
| 20260505014604 | 57 | 280 | 0.0 | 0.0 | 0.00 | 0.00 | 0.00 | 81 | 1002.2 |
| 20260505013051 | 58 | 280 | 0.0 | 0.0 | 0.00 | 0.00 | 0.00 | 78 | 1002.2 |
| 20260505011552 | 59 | 280 | 0.0 | 0.0 | 0.00 | 0.00 | 0.00 | 75 | 1002.3 |
| 20260505010048 | 60 | 280 | 0.0 | 0.0 | 0.00 | 0.00 | 0.00 | 71 | 1002.1 |
| 20260505004554 | 62 | 280 | 0.0 | 0.0 | 0.00 | 0.00 | 0.00 | 67 | 1002.0 |
| 20260505003052 | 64 | 280 | 0.0 | 0.0 | 0.00 | 0.00 | 0.00 | 63 | 1002.0 |
| 20260505001548 | 66 | 280 | 0.0 | 0.0 | 0.00 | 0.00 | 0.00 | 61 | 1002.0 |
| 20260505000054 | 67 | 282 | 2.0 | 5.0 | 0.00 | 0.00 | 0.00 | 58 | 1002.1 |
| 20260504234546 | 68 | 284 | 3.0 | 8.0 | 0.00 | 0.00 | 0.00 | 57 | 1002.0 |
| 20260504233046 | 69 | 265 | 2.0 | 6.0 | 0.00 | 0.00 | 0.00 | 56 | 1002.1 |
| 20260504231545 | 70 | 257 | 3.0 | 8.0 | 0.00 | 0.00 | 0.00 | 54 | 1002.0 |
| 20260504230049 | 70 | 269 | 7.0 | 10.0 | 0.00 | 0.00 | 0.00 | 52 | 1001.9 |
| 20260504224547 | 71 | 298 | 5.0 | 12.0 | 0.00 | 0.00 | 0.00 | 53 | 1002.0 |
| 20260504223044 | 72 | 277 | 5.0 | 9.0 | 0.00 | 0.00 | 0.00 | 50 | 1001.8 |
| 20260504221543 | 74 | 209 | 7.0 | 16.0 | 0.00 | 0.00 | 0.00 | 46 | 1001.7 |
| 20260504220042 | 75 | 236 | 4.0 | 12.0 | 0.00 | 0.00 | 0.00 | 47 | 1001.6 |
| 20260504214550 | 74 | 207 | 4.0 | 14.0 | 0.00 | 0.00 | 0.00 | 47 | 1001.8 |
| 20260504213040 | 74 | 178 | 4.0 | 12.0 | 0.00 | 0.00 | 0.00 | 48 | 1001.8 |
| 20260504211537 | 74 | 250 | 7.0 | 16.0 | 0.00 | 0.00 | 0.00 | 46 | 1001.9 |
| 20260504210050 | 74 | 232 | 6.0 | 13.0 | 0.00 | 0.00 | 0.00 | 48 | 1002.1 |
| 20260504204551 | 74 | 234 | 8.0 | 17.0 | 0.00 | 0.00 | 0.00 | 47 | 1002.2 |
| 20260504203034 | 75 | 232 | 5.0 | 19.0 | 0.00 | 0.00 | 0.00 | 47 | 1002.2 |
| 20260504201530 | 74 | 186 | 5.0 | 12.0 | 0.00 | 0.00 | 0.00 | 49 | 1002.4 |
| 20260504200028 | 74 | 281 | 6.0 | 15.0 | 0.00 | 0.00 | 0.00 | 49 | 1002.7 |
| 20260504194525 | 73 | 270 | 6.0 | 17.0 | 0.00 | 0.00 | 0.00 | 50 | 1002.9 |
| 20260504193025 | 72 | 249 | 11.0 | 22.0 | 0.00 | 0.00 | 0.00 | 50 | 1003.2 |
| 20260504191521 | 73 | 288 | 9.0 | 15.0 | 0.00 | 0.00 | 0.00 | 51 | 1003.3 |
| 20260504190017 | 72 | 219 | 6.0 | 15.0 | 0.00 | 0.00 | 0.00 | 53 | 1003.6 |
| 20260504184515 | 72 | 247 | 6.0 | 19.0 | 0.00 | 0.00 | 0.00 | 56 | 1003.6 |
| 20260504183013 | 71 | 244 | 8.0 | 14.0 | 0.00 | 0.00 | 0.00 | 54 | 1003.9 |
| 20260504181511 | 71 | 276 | 9.0 | 19.0 | 0.00 | 0.00 | 0.00 | 54 | 1004.1 |
| 20260504180008 | 71 | 294 | 6.0 | 16.0 | 0.00 | 0.00 | 0.00 | 56 | 1004.3 |
| 20260504174508 | 70 | 231 | 5.0 | 12.0 | 0.00 | 0.00 | 0.00 | 58 | 1004.4 |
| 20260504173003 | 69 | 222 | 8.0 | 21.0 | 0.00 | 0.00 | 0.00 | 57 | 1004.4 |
| 20260504171612 | 69 | 217 | 6.0 | 17.0 | 0.00 | 0.00 | 0.00 | 58 | 1004.5 |
| 20260504081535 | 51 | 199 | 6.0 | 13.0 | 0.00 | 0.00 | 0.00 | 70 | 1007.1 |
| 20260504050007 | 52 | 229 | 3.0 | 8.0 | 0.00 | 0.00 | 0.00 | 70 | 1008.6 |
| 20260504044511 | 52 | 190 | 3.0 | 8.0 | 0.00 | 0.00 | 0.00 | 69 | 1008.6 |
| 20260504043102 | 53 | 267 | 4.0 | 9.0 | 0.00 | 0.00 | 0.00 | 68 | 1008.5 |
| 20260504041607 | 53 | 281 | 5.0 | 11.0 | 0.00 | 0.00 | 0.00 | 67 | 1008.5 |
| 20260504040056 | 53 | 209 | 4.0 | 10.0 | 0.00 | 0.00 | 0.00 | 67 | 1008.6 |
| 20260504034609 | 54 | 231 | 3.0 | 9.0 | 0.00 | 0.00 | 0.00 | 66 | 1008.6 |
| 20260504033056 | 54 | 190 | 4.0 | 7.0 | 0.00 | 0.00 | 0.00 | 66 | 1008.5 |
| 20260504031553 | 53 | 214 | 3.0 | 11.0 | 0.00 | 0.00 | 0.00 | 67 | 1008.5 |
| 20260504030052 | 53 | 194 | 3.0 | 7.0 | 0.00 | 0.00 | 0.00 | 67 | 1008.7 |
| 20260504024553 | 54 | 209 | 3.0 | 7.0 | 0.00 | 0.00 | 0.00 | 67 | 1008.7 |
| 20260504023050 | 54 | 225 | 4.0 | 11.0 | 0.00 | 0.00 | 0.00 | 66 | 1008.8 |